Flag for Mexico Weather past 2 weeks in Ojinaga, Chihuahua, Mexico

Now
61 °F

Clear.


Feels Like: 61 °F
Forecast: 72 / 99 °F
Wind: 6 mph from Northeast

Location: Marfa Municipal Airport

Current Time: Jul 25, 2014 at 4:36:12 AM

Latest Report: Jul 25, 2014 at 3:55 AM


Visibility: 10 mi

Pressure: 30.22 "Hg

Humidity: 77%

Dew point: 54 °F

Location of OjinagaLocation

Historic Weather in Ojinaga — Graph

°F

Ojinaga temperature yesterday

Maximum temperature yesterday: 88 °F (at 12:35 PM)
Minimum temperature yesterday: 61 °F (at 4:35 AM)
Average temperature yesterday: 75 °F

Past Weeks' High & Low Weather Summary

 TemperatureHumidityPressure
High91 °F (Jul 20, 1:55 PM)100% (Jul 10, 6:35 AM)30.35 "Hg (Jul 10, 6:35 AM)
Low55 °F (Jul 11, 6:15 AM)22% (Jul 23, 2:35 PM)30.02 "Hg (Jul 16, 5:55 PM)
Average74 °F62%30.19 "Hg
* Reported Jul 10 3:15 AM — Jul 25 3:35 AM, Ojinaga, Weather by CustomWeather, © 2014

Note: Actual official high and low records may vary slightly from our data, if they occured in-between our weather recording intervals... More about our weather records

Advertising

Ojinaga weather history for previous 24 hours

 ConditionsComfort  
Time TempWeatherWind HumidityBarometerVisibility
3:35 AM
Jul 25
61 °FClear.3 mph77%30.23 "Hg10 mi
2:55 AM63 °FClear.7 mph73%30.24 "Hg10 mi
2:35 AM63 °FClear.6 mph73%30.24 "Hg10 mi
2:15 AM61 °FClear.9 mph72%30.25 "Hg10 mi
1:55 AM63 °FClear.3 mph68%30.25 "Hg10 mi
1:35 AM63 °FClear.No wind73%30.25 "Hg10 mi
1:15 AM64 °FClear.No wind68%30.25 "Hg10 mi
12:55 AM64 °FClear.3 mph64%30.25 "Hg10 mi
12:35 AM64 °FClear.3 mph64%30.25 "Hg10 mi
12:15 AM70 °FClear.3 mph53%30.25 "Hg10 mi
11:55 PM
Jul 24
70 °FClear.3 mph57%30.25 "Hg10 mi
11:35 PM70 °FClear.No wind57%30.25 "Hg10 mi
11:15 PM70 °FClear.8 mph57%30.24 "Hg10 mi
10:55 PM70 °FClear.3 mph57%30.24 "Hg10 mi
10:35 PM72 °FClear.3 mph53%30.23 "Hg10 mi
10:15 PM73 °FClear.6 mph50%30.23 "Hg10 mi
9:55 PM75 °FClear.7 mph47%30.22 "Hg10 mi
9:35 PM75 °FClear.10 mph44%30.22 "Hg10 mi
9:15 PM72 °FClear.7 mph44%30.22 "Hg10 mi
8:55 PM73 °FClear.8 mph41%30.21 "Hg10 mi
8:35 PM75 °FSunny.8 mph41%30.21 "Hg10 mi
8:15 PM79 °FSunny.8 mph37%30.21 "Hg10 mi
7:55 PM81 °FSunny.9 mph34%30.19 "Hg10 mi
7:35 PM82 °FSunny.12 mph32%30.19 "Hg10 mi
7:15 PM84 °FSunny.14 mph29%30.18 "Hg10 mi
6:55 PM86 °FPassing clouds.14 mph25%30.18 "Hg10 mi
6:35 PM88 °FPassing clouds.14 mph25%30.17 "Hg10 mi
6:15 PM88 °FSunny.10 mph24%30.18 "Hg10 mi
5:55 PM88 °FSunny.12 mph24%30.18 "Hg10 mi
5:35 PM88 °FSunny.10 mph25%30.18 "Hg10 mi
5:15 PM88 °FPassing clouds.10 mph25%30.19 "Hg10 mi
4:55 PM86 °FScattered clouds.3 mph31%30.20 "Hg10 mi
4:35 PM86 °FPassing clouds.6 mph31%30.21 "Hg10 mi
4:15 PM88 °FSunny.7 mph29%30.21 "Hg10 mi
3:55 PM86 °FSunny.9 mph33%30.22 "Hg10 mi
3:35 PM82 °FPassing clouds.6 mph35%30.23 "Hg10 mi
3:15 PM77 °FThunderstorms. Partly sunny.7 mph44%30.24 "Hg10 mi
2:55 PM77 °FBroken clouds.22 mph47%30.24 "Hg7 mi
2:35 PM86 °FScattered clouds.13 mph31%30.23 "Hg10 mi
2:15 PM88 °FPassing clouds.13 mph29%30.24 "Hg9 mi
1:55 PM88 °FPartly sunny.No wind29%30.24 "Hg10 mi
1:35 PM88 °FScattered clouds.6 mph29%30.25 "Hg10 mi
1:15 PM88 °FSunny.12 mph29%30.26 "Hg10 mi
12:55 PM88 °FSunny.13 mph29%30.27 "Hg10 mi
12:35 PM88 °FScattered clouds.14 mph31%30.27 "Hg10 mi
12:15 PM84 °FScattered clouds.7 mph37%30.27 "Hg10 mi
11:55 AM82 °FSunny.8 mph40%30.28 "Hg10 mi
11:35 AM81 °FSunny.3 mph42%30.29 "Hg10 mi
11:15 AM81 °FSunny.6 mph42%30.29 "Hg10 mi
10:55 AM81 °FSunny.3 mph42%30.29 "Hg10 mi
10:35 AM81 °FSunny.8 mph45%30.30 "Hg10 mi
10:15 AM79 °FSunny.8 mph48%30.30 "Hg10 mi
9:55 AM79 °FSunny.6 mph48%30.30 "Hg10 mi
9:35 AM79 °FSunny.9 mph48%30.30 "Hg10 mi
9:15 AM77 °FSunny.5 mph44%30.30 "Hg10 mi
8:55 AM77 °FSunny.6 mph44%30.31 "Hg10 mi
8:35 AM75 °FSunny.No wind50%30.31 "Hg10 mi
8:15 AM75 °FSunny.No wind50%30.31 "Hg10 mi
7:55 AM73 °FSunny.No wind57%30.30 "Hg10 mi
7:35 AM70 °FSunny.No wind64%30.29 "Hg10 mi
7:15 AM66 °FSunny.No wind73%30.29 "Hg10 mi
6:55 AM63 °FClear.3 mph77%30.29 "Hg10 mi
6:35 AM61 °FClear.3 mph77%30.29 "Hg10 mi
6:15 AM61 °FClear.6 mph77%30.28 "Hg10 mi
5:55 AM61 °FClear.6 mph77%30.28 "Hg10 mi
5:35 AM61 °FClear.5 mph77%30.28 "Hg10 mi
5:15 AM61 °FClear.5 mph77%30.28 "Hg10 mi
4:55 AM61 °FClear.5 mph77%30.28 "Hg10 mi
4:35 AM61 °FClear.No wind77%30.28 "Hg10 mi
4:15 AM63 °FClear.No wind73%30.27 "Hg10 mi
Weather by CustomWeather, © 2014

See weather overviewHow to use our weather pages